Time,TemperatureF,DewpointF,PressureIn,WindDirection,WindDirectionDegrees,WindSpeedMPH,WindSpeedGustMPH,Humidity,HourlyPrecipIn,Conditions,Clouds,dailyrainin,SolarRadiationWatts/m^2,SoftwareType,DateUTC
2013-07-12 00:02:00,59.0,53.0,-100.00,West,260,4.0,9.0,80,0.00,,,0.02,0.000000,,2013-07-12 07:02:00,
2013-07-12 00:12:00,59.0,53.0,-100.00,West,260,4.0,9.0,80,0.00,,,0.02,0.000000,,2013-07-12 07:12:00,
2013-07-12 00:22:00,59.0,53.0,-100.00,West,260,4.0,9.0,80,0.00,,,0.02,0.000000,,2013-07-12 07:22:00,
2013-07-12 00:32:00,59.0,53.0,-100.00,West,260,4.0,9.0,80,0.00,,,0.02,0.000000,,2013-07-12 07:32:00,
2013-07-12 01:01:00,62.0,52.0,-100.00,WNW,302,5.0,9.0,69,0.00,,,0.02,0.000000,,2013-07-12 08:01:00,
2013-07-12 01:11:00,62.0,52.0,-100.00,WNW,302,5.0,9.0,69,0.00,,,0.02,0.000000,,2013-07-12 08:11:00,
2013-07-12 01:21:00,62.0,52.0,-100.00,WNW,302,5.0,9.0,69,0.00,,,0.02,0.000000,,2013-07-12 08:21:00,
2013-07-12 01:32:00,62.0,52.0,-100.00,WNW,302,5.0,9.0,69,0.00,,,0.02,0.000000,,2013-07-12 08:32:00,
2013-07-12 02:02:00,61.0,53.0,-100.00,SE,124,3.0,5.0,74,0.00,,,0.01,0.000000,,2013-07-12 09:02:00,
2013-07-12 02:12:00,61.0,53.0,-100.00,SE,124,3.0,5.0,74,0.00,,,0.01,0.000000,,2013-07-12 09:12:00,
2013-07-12 02:22:00,61.0,53.0,-100.00,SE,124,3.0,5.0,74,0.00,,,0.01,0.000000,,2013-07-12 09:22:00,
2013-07-12 02:32:00,61.0,53.0,-100.00,SE,124,3.0,5.0,74,0.00,,,0.01,0.000000,,2013-07-12 09:32:00,
2013-07-12 03:01:00,60.0,52.0,-100.00,East,92,1.0,4.0,76,0.00,,,0.01,0.000000,,2013-07-12 10:01:00,
2013-07-12 03:11:00,60.0,52.0,-100.00,East,92,1.0,4.0,76,0.00,,,0.01,0.000000,,2013-07-12 10:11:00,
2013-07-12 03:22:00,60.0,52.0,-100.00,East,92,1.0,4.0,76,0.00,,,0.01,0.000000,,2013-07-12 10:22:00,
2013-07-12 03:33:00,60.0,52.0,-100.00,East,92,1.0,4.0,76,0.00,,,0.01,0.000000,,2013-07-12 10:33:00,
2013-07-12 04:02:00,60.0,53.0,-100.00,ESE,121,4.0,6.0,78,0.00,,,0.01,0.000000,,2013-07-12 11:02:00,
2013-07-12 04:11:00,60.0,53.0,-100.00,ESE,121,4.0,6.0,78,0.00,,,0.01,0.000000,,2013-07-12 11:11:00,
2013-07-12 04:22:00,60.0,53.0,-100.00,ESE,121,4.0,6.0,78,0.00,,,0.01,0.000000,,2013-07-12 11:22:00,
2013-07-12 04:32:00,60.0,53.0,-100.00,ESE,121,4.0,6.0,78,0.00,,,0.01,0.000000,,2013-07-12 11:32:00,
2013-07-12 05:01:00,59.0,53.0,-100.00,ENE,66,6.0,9.0,81,0.00,,,0.01,0.000000,,2013-07-12 12:01:00,
2013-07-12 05:11:00,59.0,53.0,-100.00,ENE,66,6.0,9.0,81,0.00,,,0.01,0.000000,,2013-07-12 12:11:00,
2013-07-12 05:22:00,59.0,53.0,-100.00,ENE,66,6.0,9.0,81,0.00,,,0.01,0.000000,,2013-07-12 12:22:00,
2013-07-12 05:32:00,59.0,53.0,-100.00,ENE,66,6.0,9.0,81,0.00,,,0.01,0.000000,,2013-07-12 12:32:00,
2013-07-12 06:01:00,59.0,56.0,-100.00,NNE,26,12.0,19.0,89,0.00,,,0.01,0.000000,,2013-07-12 13:01:00,
2013-07-12 06:12:00,59.0,56.0,-100.00,NNE,26,12.0,19.0,89,0.00,,,0.01,0.000000,,2013-07-12 13:12:00,
2013-07-12 06:22:00,59.0,56.0,-100.00,NNE,26,12.0,19.0,89,0.00,,,0.01,0.000000,,2013-07-12 13:22:00,
2013-07-12 06:32:00,59.0,56.0,-100.00,NNE,26,12.0,19.0,89,0.00,,,0.01,0.000000,,2013-07-12 13:32:00,
2013-07-12 07:02:00,60.0,54.0,-100.00,North,10,11.0,21.0,82,0.00,,,0.01,34.000000,,2013-07-12 14:02:00,
2013-07-12 07:11:00,60.0,54.0,-100.00,North,10,11.0,21.0,82,0.00,,,0.01,34.000000,,2013-07-12 14:11:00,
2013-07-12 07:22:00,60.0,54.0,-100.00,North,10,11.0,21.0,82,0.00,,,0.01,34.000000,,2013-07-12 14:22:00,
2013-07-12 07:32:00,60.0,54.0,-100.00,North,10,11.0,21.0,82,0.00,,,0.01,34.000000,,2013-07-12 14:32:00,
2013-07-12 08:01:00,65.0,55.0,-100.00,NNW,329,0.0,15.0,70,0.00,,,-99.99,150.000000,,2013-07-12 15:01:00,
2013-07-12 08:11:00,65.0,55.0,-100.00,NNW,329,0.0,15.0,70,0.00,,,-99.99,150.000000,,2013-07-12 15:11:00,
2013-07-12 08:22:00,65.0,55.0,-100.00,NNW,329,0.0,15.0,70,0.00,,,-99.99,150.000000,,2013-07-12 15:22:00,
2013-07-12 08:33:00,65.0,55.0,-100.00,NNW,329,0.0,15.0,70,0.00,,,-99.99,150.000000,,2013-07-12 15:33:00,
2013-07-12 09:01:00,66.0,56.0,-100.00,West,263,1.0,4.0,71,0.00,,,0.01,199.000000,,2013-07-12 16:01:00,
2013-07-12 09:11:00,66.0,56.0,-100.00,West,263,1.0,4.0,71,0.00,,,0.01,199.000000,,2013-07-12 16:11:00,
2013-07-12 09:22:00,66.0,56.0,-100.00,West,263,1.0,4.0,71,0.00,,,0.01,199.000000,,2013-07-12 16:22:00,
2013-07-12 09:32:00,66.0,56.0,-100.00,West,263,1.0,4.0,71,0.00,,,0.01,199.000000,,2013-07-12 16:32:00,
2013-07-12 10:04:00,67.0,56.0,-100.00,ENE,66,2.0,5.0,69,0.00,,,0.01,263.000000,,2013-07-12 17:04:00,
2013-07-12 10:12:00,67.0,56.0,-100.00,ENE,66,2.0,5.0,69,0.00,,,0.01,263.000000,,2013-07-12 17:12:00,
2013-07-12 10:23:00,67.0,56.0,-100.00,ENE,66,2.0,5.0,69,0.00,,,0.01,263.000000,,2013-07-12 17:23:00,
2013-07-12 11:04:00,59.0,56.0,-100.00,West,261,5.0,14.0,89,0.16,,,0.17,360.000000,,2013-07-12 18:04:00,
2013-07-12 11:12:00,59.0,56.0,-100.00,West,261,5.0,14.0,89,0.16,,,0.17,360.000000,,2013-07-12 18:12:00,
2013-07-12 11:23:00,59.0,56.0,-100.00,West,261,5.0,14.0,89,0.16,,,0.17,360.000000,,2013-07-12 18:23:00,
2013-07-12 11:33:00,59.0,56.0,-100.00,West,261,5.0,14.0,89,0.16,,,0.17,360.000000,,2013-07-12 18:33:00,
2013-07-12 12:03:00,66.0,57.0,-100.00,West,263,4.0,11.0,74,0.00,,,0.17,865.000000,,2013-07-12 19:03:00,
2013-07-12 12:13:00,66.0,57.0,-100.00,West,263,4.0,11.0,74,0.00,,,0.17,865.000000,,2013-07-12 19:13:00,
2013-07-12 12:22:00,66.0,57.0,-100.00,West,263,4.0,11.0,74,0.00,,,0.17,865.000000,,2013-07-12 19:22:00,
2013-07-12 12:32:00,66.0,57.0,-100.00,West,263,4.0,11.0,74,0.00,,,0.17,865.000000,,2013-07-12 19:32:00,
2013-07-12 13:02:00,73.0,61.0,-100.00,SSE,147,3.0,6.0,66,0.00,,,0.17,1237.000000,,2013-07-12 20:02:00,
2013-07-12 13:12:00,73.0,61.0,-100.00,SSE,147,3.0,6.0,66,0.00,,,0.17,1237.000000,,2013-07-12 20:12:00,
2013-07-12 13:22:00,73.0,61.0,-100.00,SSE,147,3.0,6.0,66,0.00,,,0.17,1237.000000,,2013-07-12 20:22:00,
2013-07-12 13:33:00,73.0,61.0,-100.00,SSE,147,3.0,6.0,66,0.00,,,0.17,1237.000000,,2013-07-12 20:33:00,
2013-07-12 14:02:00,70.0,59.0,-100.00,SE,136,3.0,9.0,69,0.00,,,0.17,577.000000,,2013-07-12 21:02:00,
2013-07-12 14:14:00,70.0,59.0,-100.00,SE,136,3.0,9.0,69,0.00,,,0.17,577.000000,,2013-07-12 21:14:00,
2013-07-12 14:23:00,70.0,59.0,-100.00,SE,136,3.0,9.0,69,0.00,,,0.17,577.000000,,2013-07-12 21:23:00,
2013-07-12 14:33:00,70.0,59.0,-100.00,SE,136,3.0,9.0,69,0.00,,,0.17,577.000000,,2013-07-12 21:33:00,
2013-07-12 15:02:00,75.0,59.0,-100.00,South,190,4.0,10.0,58,0.00,,,0.17,845.000000,,2013-07-12 22:02:00,
2013-07-12 15:14:00,75.0,59.0,-100.00,South,190,4.0,10.0,58,0.00,,,0.17,845.000000,,2013-07-12 22:14:00,
2013-07-12 15:22:00,75.0,59.0,-100.00,South,190,4.0,10.0,58,0.00,,,0.17,845.000000,,2013-07-12 22:22:00,
2013-07-12 15:33:00,75.0,59.0,-100.00,South,190,4.0,10.0,58,0.00,,,0.17,845.000000,,2013-07-12 22:33:00,
2013-07-12 16:03:00,77.0,60.0,-100.00,South,181,3.0,9.0,56,0.00,,,0.17,922.000000,,2013-07-12 23:03:00,
2013-07-12 16:12:00,77.0,60.0,-100.00,South,181,3.0,9.0,56,0.00,,,0.17,922.000000,,2013-07-12 23:12:00,
2013-07-12 16:22:00,77.0,60.0,-100.00,South,181,3.0,9.0,56,0.00,,,0.17,922.000000,,2013-07-12 23:22:00,
2013-07-12 16:32:00,77.0,60.0,-100.00,South,181,3.0,9.0,56,0.00,,,0.17,922.000000,,2013-07-12 23:32:00,
2013-07-12 17:03:00,76.0,59.0,-100.00,South,177,4.0,9.0,55,0.00,,,0.16,910.000000,,2013-07-13 00:03:00,
2013-07-12 17:23:00,76.0,59.0,-100.00,South,177,4.0,9.0,55,0.00,,,0.16,910.000000,,2013-07-13 00:23:00,
2013-07-12 17:32:00,76.0,59.0,-100.00,South,177,4.0,9.0,55,0.00,,,0.16,910.000000,,2013-07-13 00:32:00,
2013-07-12 18:02:00,75.0,59.0,-100.00,East,84,4.0,7.0,58,0.00,,,0.16,604.000000,,2013-07-13 01:02:00,
2013-07-12 18:11:00,75.0,59.0,-100.00,East,84,4.0,7.0,58,0.00,,,0.16,604.000000,,2013-07-13 01:11:00,
2013-07-12 18:22:00,75.0,59.0,-100.00,East,84,4.0,7.0,58,0.00,,,0.16,604.000000,,2013-07-13 01:22:00,
2013-07-12 18:33:00,75.0,59.0,-100.00,East,84,4.0,7.0,58,0.00,,,0.16,604.000000,,2013-07-13 01:33:00,
2013-07-12 19:04:00,70.0,59.0,-100.00,SSE,165,2.0,7.0,69,0.00,,,0.16,277.000000,,2013-07-13 02:04:00,
2013-07-12 19:14:00,70.0,59.0,-100.00,SSE,165,2.0,7.0,69,0.00,,,0.16,277.000000,,2013-07-13 02:14:00,
2013-07-12 19:22:00,70.0,59.0,-100.00,SSE,165,2.0,7.0,69,0.00,,,0.16,277.000000,,2013-07-13 02:22:00,
2013-07-12 19:33:00,70.0,59.0,-100.00,SSE,165,2.0,7.0,69,0.00,,,0.16,277.000000,,2013-07-13 02:33:00,
2013-07-12 20:04:00,64.0,57.0,-100.00,NE,56,1.0,4.0,77,0.00,,,0.16,58.000000,,2013-07-13 03:04:00,
2013-07-12 20:12:00,64.0,57.0,-100.00,NE,56,1.0,4.0,77,0.00,,,0.16,58.000000,,2013-07-13 03:12:00,
2013-07-12 20:23:00,64.0,57.0,-100.00,NE,56,1.0,4.0,77,0.00,,,0.16,58.000000,,2013-07-13 03:23:00,
2013-07-12 20:33:00,64.0,57.0,-100.00,NE,56,1.0,4.0,77,0.00,,,0.16,58.000000,,2013-07-13 03:33:00,
2013-07-12 21:01:00,62.0,55.0,-100.00,SW,225,0.0,4.0,79,0.00,,,0.16,2.000000,,2013-07-13 04:01:00,
2013-07-12 21:11:00,62.0,55.0,-100.00,SW,225,0.0,4.0,79,0.00,,,0.16,2.000000,,2013-07-13 04:11:00,
2013-07-12 21:22:00,62.0,55.0,-100.00,SW,225,0.0,4.0,79,0.00,,,0.16,2.000000,,2013-07-13 04:22:00,
2013-07-12 21:32:00,62.0,55.0,-100.00,SW,225,0.0,4.0,79,0.00,,,0.16,2.000000,,2013-07-13 04:32:00,
2013-07-12 22:01:00,63.0,54.0,-100.00,North,6,2.0,7.0,72,0.00,,,0.16,0.000000,,2013-07-13 05:01:00,
2013-07-12 22:11:00,63.0,54.0,-100.00,North,6,2.0,7.0,72,0.00,,,0.16,0.000000,,2013-07-13 05:11:00,
2013-07-12 22:21:00,63.0,54.0,-100.00,North,6,2.0,7.0,72,0.00,,,0.16,0.000000,,2013-07-13 05:21:00,
2013-07-12 22:32:00,63.0,54.0,-100.00,North,6,2.0,7.0,72,0.00,,,0.16,0.000000,,2013-07-13 05:32:00,
2013-07-12 23:01:00,63.0,53.0,-100.00,WNW,298,1.0,4.0,71,0.00,,,0.16,0.000000,,2013-07-13 06:01:00,
2013-07-12 23:11:00,63.0,53.0,-100.00,WNW,298,1.0,4.0,71,0.00,,,0.16,0.000000,,2013-07-13 06:11:00,
2013-07-12 23:22:00,63.0,53.0,-100.00,WNW,298,1.0,4.0,71,0.00,,,0.16,0.000000,,2013-07-13 06:22:00,
2013-07-12 23:32:00,63.0,53.0,-100.00,WNW,298,1.0,4.0,71,0.00,,,0.16,0.000000,,2013-07-13 06:32:00,